Theta_e
343 343 343 342 341 342 344 345 345 346 346 347 346 345 344 342 341 339 338 346 348 350 353 354 356 357 358 357 357 355 353 349 345 342 341 339 336 334 334 334 332 330 328
341 345 345 345 343 342 342 343 343 343 342 342 342 341 342 341 340 336 334 334 344 346 351 355 357 357 360 359 357 355 353 348 345 342 340 339 337 334 334 334 332 330 327
331 338 343 342 343 344 339 340 340 338 336 337 337 339 340 339 339 338 338 335 337 347 351 355 356 356 358 360 359 356 352 348 345 342 340 339 337 335 334 334 332 330 326
330 330 333 339 342 340 342 336 337 332 333 334 335 335 337 337 337 337 338 339 339 339 343 349 352 354 355 356 359 357 354 348 344 342 340 339 337 334 334 333 331 328 325
332 330 329 336 341 341 341 341 339 333 331 332 333 335 334 333 333 336 336 335 335 336 336 341 348 349 351 353 354 357 355 350 344 342 341 338 336 335 334 332 328 326 324
329 326 329 335 342 342 333 334 334 332 333 331 334 332 330 330 331 331 331 332 332 333 334 336 339 341 347 350 352 353 355 353 346 343 340 338 335 335 334 329 326 323 324
331 325 328 332 341 339 330 331 330 327 325 326 325 324 323 323 323 324 325 325 327 332 332 334 336 339 341 347 348 350 353 354 351 344 339 337 335 335 331 327 323 322 322
329 327 324 329 332 326 324 323 321 319 324 329 324 318 313 314 316 318 320 323 325 327 330 333 334 335 336 337 340 345 350 347 350 347 338 336 336 333 327 321 320 320 321
328 326 324 324 325 323 322 321 320 321 321 323 325 319 312 309 312 318 318 320 319 321 325 325 326 327 328 331 338 342 345 343 343 342 338 337 332 326 323 319 318 320 321
328 327 323 322 320 320 320 322 324 321 321 318 319 324 321 318 313 312 316 317 318 323 320 319 319 323 323 325 331 339 341 341 343 342 340 331 327 323 322 321 319 318 318
325 325 326 323 320 317 317 318 317 316 318 319 321 321 320 318 315 317 313 312 315 317 313 313 315 317 322 321 324 331 330 329 327 326 326 324 321 319 318 319 316 315 317
318 319 322 321 322 322 322 321 322 321 322 323 324 323 322 321 320 319 317 314 313 313 312 313 314 317 320 319 322 322 320 319 318 318 318 319 319 318 315 313 313 314 315
313 314 315 318 317 318 316 316 316 317 317 317 319 317 318 318 320 322 317 313 311 312 311 309 313 316 316 316 318 320 320 318 316 315 315 316 315 314 311 310 312 312 313
310 313 313 312 315 315 315 314 315 314 314 313 314 312 313 317 317 317 316 314 311 308 307 306 311 312 314 316 318 318 316 315 314 314 314 313 311 311 310 308 309 310 311
310 310 310 310 310 310 311 311 310 310 310 309 307 308 308 311 312 313 313 313 311 308 309 307 308 311 314 316 314 312 312 314 314 312 310 309 309 309 308 307 307 308 309
305 306 307 310 311 310 310 309 307 307 306 305 306 304 305 307 308 309 310 310 311 311 309 308 307 310 312 313 314 311 312 313 312 310 309 309 308 307 306 306 306 308 309
304 304 307 308 309 308 307 306 306 305 304 302 301 301 301 302 303 306 307 307 308 310 308 306 308 309 309 311 311 312 311 309 309 310 309 308 306 305 305 306 307 307 308
305 304 307 308 307 307 306 305 304 304 302 299 299 299 299 303 301 303 305 304 304 306 307 303 306 306 307 308 309 310 310 310 308 310 308 307 305 305 305 306 307 307 307
305 305 305 305 305 305 304 304 303 302 301 301 300 300 301 301 301 302 301 304 304 305 306 304 303 306 306 306 306 308 307 306 309 309 307 306 305 304 305 306 307 306 304
304 303 302 302 302 303 303 301 300 300 299 298 299 303 303 303 303 303 299 300 303 303 304 304 303 304 304 305 306 305 303 306 303 305 305 303 303 304 304 305 307 307 304
302 301 301 300 300 301 302 301 300 300 299 297 298 299 303 307 307 308 302 303 303 304 304 303 302 303 303 304 304 306 302 301 301 301 298 298 298 299 301 302 304 305 304
300 300 300 300 299 301 301 303 302 300 300 298 299 302 304 305 307 306 306 306 305 303 301 300 300 299 299 303 304 302 300 298 296 300 296 296 299 297 298 301 302 302 302
299 299 299 299 298 299 299 299 303 301 300 301 300 301 302 303 304 302 302 302 302 303 302 299 297 297 298 299 303 301 301 299 297 297 296 294 297 296 298 299 301 301 300
298 298 297 297 297 297 298 299 301 300 301 300 300 301 302 301 302 301 300 299 298 298 298 298 297 296 298 300 303 302 299 298 298 297 297 293 296 295 297 297 300 300 300
297 297 297 295 293 294 297 298 301 300 299 300 300 300 301 300 299 299 299 297 296 297 299 299 298 297 297 298 301 301 298 297 295 295 297 295 295 295 296 295 297 299 299
297 299 299 298 299 298 297 297 299 300 299 299 299 300 300 299 297 299 300 300 296 296 294 294 296 297 297 298 299 298 300 295 293 293 296 296 295 295 293 296 296 296 296
Wind_Speed
7 6 7 6 7 5 6 6 6 7 8 7 7 7 8 8 8 5 4 14 15 15 18 20 20 21 21 23 24 24 23 24 22 22 22 21 20 19 17 14 10 7 6
7 8 8 7 8 6 6 7 9 8 7 4 5 6 7 6 6 6 4 5 11 13 13 16 17 19 21 22 24 24 24 24 24 24 23 22 21 21 18 15 11 8 6
9 10 8 9 9 7 8 7 7 4 3 4 6 5 5 6 5 5 5 4 5 8 10 13 15 19 20 23 25 25 25 25 25 24 24 24 22 20 18 15 11 9 7
8 9 9 9 10 8 6 4 5 2 4 5 4 5 4 4 6 6 5 4 4 5 7 12 14 17 19 21 26 26 26 27 28 29 28 26 23 21 18 15 12 9 8
10 8 8 10 11 7 6 4 1 4 4 5 5 4 4 4 5 4 6 6 6 5 4 9 14 15 17 22 26 28 28 29 29 29 26 23 21 19 17 14 11 9 8
11 10 8 10 9 7 4 4 6 5 4 4 3 3 3 4 5 5 5 4 4 5 5 6 6 6 14 18 24 29 30 31 32 29 27 25 21 18 15 12 10 7 9
11 10 8 8 7 7 6 6 4 5 2 2 2 3 3 4 6 4 3 4 6 5 5 5 5 5 6 16 18 24 30 30 33 35 31 23 22 19 14 10 8 6 6
15 10 10 8 4 2 5 4 6 2 2 1 3 1 3 5 4 4 3 4 6 4 5 5 7 9 8 7 12 19 22 17 26 29 20 19 19 17 11 5 2 4 7
13 13 12 8 6 2 2 4 4 7 3 3 4 4 1 4 3 3 4 3 5 4 5 7 9 11 10 11 14 14 17 13 20 26 24 23 21 19 14 4 1 5 8
12 15 10 10 6 5 4 3 4 4 3 3 2 2 2 4 4 5 3 3 2 3 3 3 5 6 7 6 14 20 16 17 24 25 25 27 25 18 15 10 1 4 8
9 11 14 10 8 4 4 3 3 1 1 0 1 2 2 1 3 4 7 3 3 2 3 2 3 4 6 5 9 17 28 29 28 27 21 18 17 13 9 7 2 3 9
6 8 10 9 9 6 5 2 2 2 2 1 4 2 3 2 3 3 4 5 5 2 2 1 2 3 4 6 16 24 26 26 26 24 20 19 15 14 7 2 0 5 7
5 7 7 7 6 7 8 6 3 5 4 3 1 2 1 2 4 4 3 5 4 1 1 2 2 2 3 4 6 11 17 19 20 21 22 22 15 13 6 2 6 5 7
4 6 7 5 6 5 5 5 2 4 3 4 1 2 3 2 2 2 3 4 5 3 1 0 1 2 2 3 9 14 9 15 17 16 16 18 15 11 7 3 3 7 7
4 5 8 6 6 6 6 6 4 5 5 4 2 3 2 2 2 2 3 3 4 4 3 2 2 1 1 4 9 5 8 16 16 17 16 12 11 9 6 4 3 6 8
4 5 7 6 6 5 6 5 4 5 4 2 3 4 4 3 4 3 3 3 3 4 3 2 1 2 4 6 9 5 9 14 16 15 14 11 9 6 3 5 5 7 8
4 5 6 6 5 5 5 4 4 5 6 6 6 5 5 5 3 2 2 2 2 2 3 1 2 3 4 6 7 3 9 6 8 14 14 12 10 6 7 8 7 8 9
3 5 5 5 5 4 5 5 5 6 6 6 5 5 5 3 4 4 3 3 2 2 1 3 2 1 3 5 6 6 8 6 6 14 12 11 11 9 9 13 10 11 11
3 4 4 5 5 5 5 5 4 4 5 5 6 5 5 5 5 3 3 3 3 2 2 3 3 2 4 4 4 4 8 6 7 13 11 12 13 13 17 15 12 13 14
4 5 6 6 6 6 6 6 5 4 5 5 4 4 4 4 5 5 4 4 3 3 3 5 5 5 4 4 2 5 7 5 6 7 9 10 12 14 14 16 16 15 12
6 5 5 6 6 6 4 4 3 3 4 5 4 5 5 8 6 6 3 4 3 4 4 6 6 6 5 4 4 4 7 7 6 4 3 4 3 4 7 12 15 15 12
6 5 6 5 6 4 8 10 7 4 3 2 4 5 6 10 10 17 17 18 10 5 7 5 4 4 2 2 5 9 9 6 3 2 3 4 4 4 5 6 18 18 12
5 5 5 4 4 5 11 8 11 4 4 4 4 4 5 6 9 8 14 17 19 20 15 4 5 3 2 1 4 7 7 3 3 3 3 3 3 5 5 7 17 18 17
4 3 4 5 5 5 11 6 6 4 3 4 4 4 4 5 6 8 10 11 11 11 11 7 7 4 2 1 3 4 7 7 6 3 2 3 2 3 4 5 17 18 17
3 4 3 5 6 5 8 6 5 4 4 5 4 5 4 5 6 7 8 9 8 7 10 15 14 13 15 11 3 8 7 8 3 2 3 3 1 2 4 5 7 16 18
3 4 5 5 7 5 9 8 5 3 6 5 6 6 13 5 8 7 5 6 8 6 6 9 9 9 11 11 14 7 4 5 4 3 2 3 0 1 1 3 6 7 8
Wind_Direction
274 269 251 243 238 220 220 231 229 228 226 218 227 232 244 242 244 244 256 266 268 268 267 266 259 244 228 219 211 206 204 203 199 194 191 192 193 195 199 204 211 228 264
293 278 266 249 244 221 221 222 230 226 225 220 231 243 255 252 246 249 253 269 281 288 292 289 270 242 231 225 217 207 206 206 201 198 195 193 195 197 199 202 209 221 252
294 284 272 265 253 235 214 217 235 227 223 229 241 232 239 251 257 257 259 256 280 287 287 274 274 256 231 227 225 214 211 207 203 202 198 197 197 196 199 203 213 223 243
277 288 280 264 258 247 220 223 247 243 232 215 217 224 232 239 249 254 258 262 268 277 278 274 271 262 251 238 235 225 217 212 206 202 202 193 193 196 197 200 206 227 249
323 292 275 269 259 247 194 184 263 226 226 225 221 227 228 232 242 248 250 251 247 257 278 290 283 276 265 249 241 237 228 216 214 204 201 195 198 197 195 197 208 228 249
322 322 285 267 254 238 181 175 192 211 228 242 221 266 269 268 263 254 266 282 283 266 261 265 278 273 270 271 260 244 235 226 219 212 196 188 191 201 200 197 213 221 254
325 316 314 280 258 226 209 177 149 227 272 354 30 304 283 258 274 273 280 282 289 283 268 271 273 271 277 272 270 265 247 238 226 210 187 180 177 193 187 197 212 233 254
328 327 325 319 296 153 171 137 134 157 232 144 141 95 328 329 338 294 279 283 280 303 330 342 319 306 299 287 274 269 254 250 265 217 155 167 179 174 164 149 209 279 297
336 333 331 338 348 307 263 154 154 158 176 255 98 161 17 258 342 300 279 292 328 1 19 6 343 328 330 316 297 274 257 229 156 171 173 177 147 140 134 127 324 277 292
344 345 341 342 353 355 31 81 99 116 102 216 346 149 214 187 243 307 315 320 9 39 50 9 325 327 324 316 304 275 254 208 195 196 192 144 138 138 142 137 225 273 291
347 347 343 333 345 360 358 8 66 99 130 244 257 351 360 262 257 245 292 299 321 208 90 12 342 324 352 21 21 70 85 94 99 102 105 100 97 101 126 125 128 273 270
331 345 340 339 342 351 7 354 268 207 243 125 111 245 238 287 252 264 267 295 270 221 37 55 63 346 40 63 81 84 86 97 101 103 108 101 88 83 61 64 10 268 288
329 330 327 337 351 347 338 329 310 131 121 100 58 269 257 292 282 293 300 281 271 279 132 15 22 42 58 79 102 109 113 118 118 118 120 116 116 99 90 10 280 297 312
303 304 308 323 335 346 330 307 332 351 37 88 227 266 264 244 271 245 273 285 289 274 156 136 54 25 10 68 130 105 100 99 101 107 104 99 111 133 149 162 317 332 317
292 314 307 321 334 346 359 349 344 4 11 37 19 321 314 282 322 296 280 275 261 275 214 173 168 85 28 83 101 98 112 109 114 106 106 115 127 113 114 85 345 332 322
299 315 307 319 340 353 2 357 1 342 32 23 33 359 353 352 322 309 293 281 303 283 273 132 152 117 103 105 123 108 116 114 110 112 107 105 91 73 73 53 5 342 338
312 315 309 324 343 354 359 360 13 20 30 10 9 5 1 347 302 294 294 285 263 283 282 79 85 117 113 128 115 108 97 96 122 119 108 99 72 33 32 31 2 18 352
313 308 316 322 8 4 12 24 29 26 27 23 11 360 356 316 336 347 341 333 318 305 185 119 88 105 90 108 119 103 108 103 113 107 106 89 63 28 25 25 10 35 13
334 350 5 10 17 14 13 23 30 27 39 23 359 353 336 342 3 14 353 348 341 336 157 132 120 95 82 103 97 80 109 105 109 105 88 68 47 27 24 24 19 38 36
31 31 19 20 14 18 14 18 22 26 29 30 352 333 337 5 12 9 2 3 16 31 74 111 115 113 106 111 115 120 128 111 107 80 61 51 39 25 25 25 21 38 42
47 36 31 22 13 19 2 25 17 21 35 21 350 341 333 24 27 48 38 31 43 47 73 95 92 106 118 145 171 122 114 108 91 93 79 45 22 7 17 22 25 30 43
32 31 25 1 12 8 2 15 9 11 61 37 358 1 350 20 68 74 66 62 60 72 72 80 66 76 55 106 132 132 131 128 135 138 97 52 31 22 15 27 33 35 36
20 19 10 355 4 355 357 359 14 354 343 3 10 18 29 38 58 71 66 61 55 54 57 58 94 65 68 44 126 138 133 104 98 126 98 59 9 33 8 24 32 35 34
6 349 351 355 1 357 1 1 27 13 355 27 22 21 65 51 49 83 72 66 57 47 43 43 52 51 13 21 87 128 114 97 93 76 98 103 0 29 20 23 25 29 29
7 4 352 8 16 354 354 3 356 19 24 34 31 33 45 87 72 67 83 76 68 64 60 55 53 44 39 52 90 123 130 131 105 61 13 103 29 21 38 18 15 21 24
352 10 17 20 34 14 9 20 23 354 40 28 37 40 40 87 84 50 62 68 70 38 30 40 35 34 41 42 45 47 122 115 107 99 10 89 104 338 87 17 21 16 11